TimePDT,TemperatureF,Dew PointF,Humidity,Sea Level PressureIn,VisibilityMPH,Wind Direction,Wind SpeedMPH,Gust SpeedMPH,PrecipitationIn,Events,Conditions,WindDirDegrees,DateUTC
12:53 AM,52.0,37.0,57,30.27,10.0,Calm,Calm,-,N/A,,Clear,0,2012-10-05 07:53:00
1:53 AM,51.1,37.9,61,30.28,10.0,WNW,3.5,-,N/A,,Clear,300,2012-10-05 08:53:00
2:53 AM,50.0,37.9,63,30.27,10.0,Calm,Calm,-,N/A,,Clear,0,2012-10-05 09:53:00
3:53 AM,48.9,42.1,77,30.27,10.0,Calm,Calm,-,N/A,,Clear,0,2012-10-05 10:53:00
4:53 AM,48.9,43.0,80,30.27,10.0,Calm,Calm,-,N/A,,Clear,0,2012-10-05 11:53:00
5:53 AM,48.0,41.0,77,30.27,10.0,Calm,Calm,-,N/A,,Clear,0,2012-10-05 12:53:00
6:53 AM,48.0,42.1,80,30.28,10.0,Calm,Calm,-,N/A,,Clear,0,2012-10-05 13:53:00
7:53 AM,48.9,41.0,74,30.30,10.0,Calm,Calm,-,N/A,,Clear,0,2012-10-05 14:53:00
8:53 AM,51.8,39.2,62,30.30,10.0,Calm,Calm,-,N/A,,Clear,0,2012-10-05 15:53:00
9:53 AM,55.9,37.9,51,30.30,10.0,Variable,3.5,-,N/A,,Clear,0,2012-10-05 16:53:00
10:53 AM,60.1,35.1,39,30.29,10.0,North,5.8,-,N/A,,Clear,350,2012-10-05 17:53:00
11:53 AM,61.0,36.0,39,30.27,10.0,NW,8.1,-,N/A,,Clear,310,2012-10-05 18:53:00
12:53 PM,64.0,37.0,37,30.25,10.0,NW,6.9,-,N/A,,Clear,310,2012-10-05 19:53:00
1:53 PM,66.9,36.0,32,30.23,10.0,NW,11.5,16.1,N/A,,Clear,310,2012-10-05 20:53:00
2:53 PM,68.0,33.1,27,30.22,10.0,NW,8.1,-,N/A,,Clear,310,2012-10-05 21:53:00
3:53 PM,66.9,36.0,32,30.21,10.0,NW,9.2,16.1,N/A,,Clear,320,2012-10-05 22:53:00
4:53 PM,66.0,36.0,33,30.20,10.0,NW,12.7,-,N/A,,Clear,310,2012-10-05 23:53:00
5:53 PM,64.0,35.1,34,30.21,10.0,Variable,3.5,-,N/A,,Clear,0,2012-10-06 00:53:00
6:53 PM,61.0,34.0,36,30.22,10.0,Calm,Calm,-,N/A,,Clear,0,2012-10-06 01:53:00
7:53 PM,57.0,35.1,44,30.22,10.0,Calm,Calm,-,N/A,,Clear,0,2012-10-06 02:53:00
8:53 PM,55.9,36.0,47,30.23,10.0,NW,4.6,-,N/A,,Clear,320,2012-10-06 03:53:00
9:53 PM,54.0,36.0,51,30.23,10.0,Calm,Calm,-,N/A,,Clear,0,2012-10-06 04:53:00
10:53 PM,52.0,37.0,57,30.23,10.0,Calm,Calm,-,N/A,,Clear,0,2012-10-06 05:53:00
11:53 PM,50.0,36.0,59,30.23,10.0,Calm,Calm,-,N/A,,Clear,0,2012-10-06 06:53:00